User: anonymous   Login
Location: ScottNC Observatory
(36.0892°N, 80.4832°W)
Time: 07:58:55
(UTC-05:00)
Language:

AO-73 - Orbit

View from above orbital plane
View from above orbital plane
View from above satellite
View from above satellite

Ground track
Ground track

The orbit data is extracted from the following two-line orbital elements,

1 39444U 13066AE  19324.72989167 +.00000269 +00000-0 +39399-4 0  9992
2 39444 097.5583 331.6017 0056762 238.0758 121.4928 14.82012721322308
Epoch (UTC): 20 November 2019 17:31:02
Eccentricity: 0.0056762
inclination: 97.5583°
perigee height: 583 km
apogee height: 663 km
right ascension of ascending node: 331.6017°
argument of perigee: 238.0758°
revolutions per day: 14.82012721
mean anomaly at epoch: 121.4928°
orbit number at epoch: 32230

The dashed part of the orbit path shows where the satellite is in the earth's shadow,  

DLR